Location: Bjelajci
(45.0103°N, 16.1758°E)
Time: 04:33:20
(UTC+00:00)

Cosmos 1802 Rocket - Pass Details

Date: 14 July 2020
Orbit: 954 x 1011 km, 82.9° (Epoch: 11 August)

Event Time Altitude Azimuth Distance (km) Brightness Sun altitude
Exits shadow 01:03:01 28° 213° (SSW) 1,779 4.8 -17.8°
Maximum altitude 01:06:23 59° 282° (WNW) 1,159 4.3 -17.5°
Drops below altitude 10° 01:12:45 10° 1° (N) 2,802 7.3 -16.9°
Sets 01:15:22 0° 6° (N) 3,758 8.2 -16.7°
